Year,Month,Day,Hour,Minute,Value (Times are PST for temperature in C)
2014,08,24,00,00,13.60
2014,08,24,00,01,13.60
2014,08,24,00,02,13.60
2014,08,24,00,03,13.60
2014,08,24,00,04,13.60
2014,08,24,00,05,13.50
2014,08,24,00,06,13.50
2014,08,24,00,07,13.50
2014,08,24,00,08,13.50
2014,08,24,00,09,13.50
2014,08,24,00,10,13.50
2014,08,24,00,11,13.50
2014,08,24,00,12,13.50
2014,08,24,00,13,13.50
2014,08,24,00,14,13.50
2014,08,24,00,15,13.50
2014,08,24,00,16,13.50
2014,08,24,00,17,13.40
2014,08,24,00,18,13.40
2014,08,24,00,19,13.40
2014,08,24,00,20,13.40
2014,08,24,00,21,13.40
2014,08,24,00,22,13.40
2014,08,24,00,23,13.40
2014,08,24,00,24,13.30
2014,08,24,00,25,13.30
2014,08,24,00,26,13.30
2014,08,24,00,27,13.30
2014,08,24,00,28,13.30
2014,08,24,00,29,13.30
2014,08,24,00,30,13.30
2014,08,24,00,31,13.30
2014,08,24,00,32,13.30
2014,08,24,00,33,13.30
2014,08,24,00,34,13.30
2014,08,24,00,35,13.30
2014,08,24,00,36,13.30
2014,08,24,00,37,13.20
2014,08,24,00,38,13.20
2014,08,24,00,39,13.20
2014,08,24,00,40,13.20
2014,08,24,00,41,13.20
2014,08,24,00,42,13.20
2014,08,24,00,43,13.20
2014,08,24,00,44,13.20
2014,08,24,00,45,13.20
2014,08,24,00,46,13.20
2014,08,24,00,47,13.20
2014,08,24,00,48,13.20
2014,08,24,00,49,13.20
2014,08,24,00,50,13.20
2014,08,24,00,51,13.20
2014,08,24,00,52,13.20
2014,08,24,00,53,13.20
2014,08,24,00,54,13.10
2014,08,24,00,55,13.10
2014,08,24,00,56,13.10
2014,08,24,00,57,13.10
2014,08,24,00,58,13.10
2014,08,24,00,59,13.10
2014,08,24,01,00,13.10
2014,08,24,01,01,13.10
2014,08,24,01,02,13.00
2014,08,24,01,03,13.00
2014,08,24,01,04,13.00
2014,08,24,01,05,12.90
2014,08,24,01,06,12.90
2014,08,24,01,07,12.90
2014,08,24,01,08,12.90
2014,08,24,01,09,12.90
2014,08,24,01,10,12.90
2014,08,24,01,11,12.90
2014,08,24,01,12,12.90
2014,08,24,01,13,12.90
2014,08,24,01,14,12.90
2014,08,24,01,15,12.90
2014,08,24,01,16,12.90
2014,08,24,01,17,12.90
2014,08,24,01,18,12.80
2014,08,24,01,19,12.80
2014,08,24,01,20,12.80
2014,08,24,01,21,12.80
2014,08,24,01,22,12.80
2014,08,24,01,23,12.80
2014,08,24,01,24,12.80
2014,08,24,01,25,12.70
2014,08,24,01,26,12.70
2014,08,24,01,27,12.70
2014,08,24,01,28,12.70
2014,08,24,01,29,12.70
2014,08,24,01,30,12.60
2014,08,24,01,31,12.60
2014,08,24,01,32,12.60
2014,08,24,01,33,12.60
2014,08,24,01,34,12.60
2014,08,24,01,35,12.60
2014,08,24,01,36,12.60
2014,08,24,01,37,12.60
2014,08,24,01,38,12.60
2014,08,24,01,39,12.60
2014,08,24,01,40,12.50
2014,08,24,01,41,12.50
2014,08,24,01,42,12.50
2014,08,24,01,43,12.50
2014,08,24,01,44,12.50
2014,08,24,01,45,12.50
2014,08,24,01,46,12.50
2014,08,24,01,47,12.60
2014,08,24,01,48,12.60
2014,08,24,01,49,12.60
2014,08,24,01,50,12.70
2014,08,24,01,51,12.70
2014,08,24,01,52,12.70
2014,08,24,01,53,12.70
2014,08,24,01,54,12.70
2014,08,24,01,55,12.70
2014,08,24,01,56,12.70
2014,08,24,01,57,12.70
2014,08,24,01,58,12.70
2014,08,24,01,59,12.70
2014,08,24,02,00,12.70
2014,08,24,02,01,12.70
2014,08,24,02,02,12.70
2014,08,24,02,03,12.70
2014,08,24,02,04,12.70
2014,08,24,02,05,12.60
2014,08,24,02,06,12.60
2014,08,24,02,07,12.60
2014,08,24,02,08,12.60
2014,08,24,02,09,12.60
2014,08,24,02,10,12.60
2014,08,24,02,11,12.60
2014,08,24,02,12,12.50
2014,08,24,02,13,12.50
2014,08,24,02,14,12.50
2014,08,24,02,15,12.50
2014,08,24,02,16,12.50
2014,08,24,02,17,12.50
2014,08,24,02,18,12.50
2014,08,24,02,19,12.50
2014,08,24,02,20,12.40
2014,08,24,02,21,12.40
2014,08,24,02,22,12.40
2014,08,24,02,23,12.40
2014,08,24,02,24,12.40
2014,08,24,02,25,12.50
2014,08,24,02,26,12.50
2014,08,24,02,27,12.50
2014,08,24,02,28,12.60
2014,08,24,02,29,12.60
2014,08,24,02,30,12.60
2014,08,24,02,31,12.60
2014,08,24,02,32,12.60
2014,08,24,02,33,12.60
2014,08,24,02,34,12.60
2014,08,24,02,35,12.60
2014,08,24,02,36,12.60
2014,08,24,02,37,12.60
2014,08,24,02,38,12.60
2014,08,24,02,39,12.60
2014,08,24,02,40,12.60
2014,08,24,02,41,12.60
2014,08,24,02,42,12.60
2014,08,24,02,43,12.60
2014,08,24,02,44,12.60
2014,08,24,02,45,12.70
2014,08,24,02,46,12.70
2014,08,24,02,47,12.70
2014,08,24,02,48,12.70
2014,08,24,02,49,12.70
2014,08,24,02,50,12.70
2014,08,24,02,51,12.70
2014,08,24,02,52,12.70
2014,08,24,02,53,12.70
2014,08,24,02,54,12.70
2014,08,24,02,55,12.70
2014,08,24,02,56,12.70
2014,08,24,02,57,12.70
2014,08,24,02,58,12.80
2014,08,24,02,59,12.80
2014,08,24,03,00,12.80
2014,08,24,03,01,12.80
2014,08,24,03,02,12.80
2014,08,24,03,03,12.80
2014,08,24,03,04,12.80
2014,08,24,03,05,12.70
2014,08,24,03,06,12.70
2014,08,24,03,07,12.70
2014,08,24,03,08,12.70
2014,08,24,03,09,12.70
2014,08,24,03,10,12.70
2014,08,24,03,11,12.70
2014,08,24,03,12,12.70
2014,08,24,03,13,12.60
2014,08,24,03,14,12.60
2014,08,24,03,15,12.60
2014,08,24,03,16,12.60
2014,08,24,03,17,12.50
2014,08,24,03,18,12.50
2014,08,24,03,19,12.50
2014,08,24,03,20,12.50
2014,08,24,03,21,12.50
2014,08,24,03,22,12.50
2014,08,24,03,23,12.40
2014,08,24,03,24,12.40
2014,08,24,03,25,12.40
2014,08,24,03,26,12.40
2014,08,24,03,27,12.40
2014,08,24,03,28,12.40
2014,08,24,03,29,12.30
2014,08,24,03,30,12.30
2014,08,24,03,31,12.30
2014,08,24,03,32,12.30
2014,08,24,03,33,12.30
2014,08,24,03,34,12.30
2014,08,24,03,35,12.30
2014,08,24,03,36,12.30
2014,08,24,03,37,12.20
2014,08,24,03,38,12.20
2014,08,24,03,39,12.20
2014,08,24,03,40,12.20
2014,08,24,03,41,12.20
2014,08,24,03,42,12.20
2014,08,24,03,43,12.20
2014,08,24,03,44,12.20
2014,08,24,03,45,12.20
2014,08,24,03,46,12.20
2014,08,24,03,47,12.20
2014,08,24,03,48,12.20
2014,08,24,03,49,12.20
2014,08,24,03,50,12.20
2014,08,24,03,51,12.20
2014,08,24,03,52,12.20
2014,08,24,03,53,12.20
2014,08,24,03,54,12.20
2014,08,24,03,55,12.20
2014,08,24,03,56,12.20
2014,08,24,03,57,12.20
2014,08,24,03,58,12.20
2014,08,24,03,59,12.20
2014,08,24,04,00,12.20
2014,08,24,04,01,12.10
2014,08,24,04,02,12.20
2014,08,24,04,03,12.20
2014,08,24,04,04,12.10
2014,08,24,04,05,12.10
2014,08,24,04,06,12.10
2014,08,24,04,07,12.10
2014,08,24,04,08,12.10
2014,08,24,04,09,12.10
2014,08,24,04,10,12.00
2014,08,24,04,11,12.00
2014,08,24,04,12,12.00
2014,08,24,04,13,12.00
2014,08,24,04,14,12.00
2014,08,24,04,15,12.00
2014,08,24,04,16,12.00
2014,08,24,04,17,12.00
2014,08,24,04,18,12.00
2014,08,24,04,19,12.10
2014,08,24,04,20,12.10
2014,08,24,04,21,12.10
2014,08,24,04,22,12.20
2014,08,24,04,23,12.20
2014,08,24,04,24,12.20
2014,08,24,04,25,12.20
2014,08,24,04,26,12.20
2014,08,24,04,27,12.20
2014,08,24,04,28,12.10
2014,08,24,04,29,12.10
2014,08,24,04,30,12.10
2014,08,24,04,31,12.10
2014,08,24,04,32,12.00
2014,08,24,04,33,12.00
2014,08,24,04,34,12.00
2014,08,24,04,35,12.00
2014,08,24,04,36,12.00
2014,08,24,04,37,12.00
2014,08,24,04,38,11.90
2014,08,24,04,39,11.90
2014,08,24,04,40,11.90
2014,08,24,04,41,11.90
2014,08,24,04,42,11.90
2014,08,24,04,43,11.90
2014,08,24,04,44,11.90
2014,08,24,04,45,11.90
2014,08,24,04,46,11.90
2014,08,24,04,47,11.80
2014,08,24,04,48,11.80
2014,08,24,04,49,11.80
2014,08,24,04,50,11.90
2014,08,24,04,51,11.90
2014,08,24,04,52,11.90
2014,08,24,04,53,11.90
2014,08,24,04,54,11.90
2014,08,24,04,55,11.90
2014,08,24,04,56,11.90
2014,08,24,04,57,11.90
2014,08,24,04,58,11.90
2014,08,24,04,59,11.90
2014,08,24,05,00,11.90
2014,08,24,05,01,11.90
2014,08,24,05,02,11.90
2014,08,24,05,03,11.90
2014,08,24,05,04,11.90
2014,08,24,05,05,11.90
2014,08,24,05,06,11.90
2014,08,24,05,07,11.90
2014,08,24,05,08,11.90
2014,08,24,05,09,12.00
2014,08,24,05,10,12.10
2014,08,24,05,11,12.20
2014,08,24,05,12,12.40
2014,08,24,05,13,12.80
2014,08,24,05,14,13.30
2014,08,24,05,15,13.80
2014,08,24,05,16,14.30
2014,08,24,05,17,14.80
2014,08,24,05,18,15.10
2014,08,24,05,19,15.40
2014,08,24,05,20,15.70
2014,08,24,05,21,15.90
2014,08,24,05,22,16.20
2014,08,24,05,23,16.40
2014,08,24,05,24,16.50
2014,08,24,05,25,16.70
2014,08,24,05,26,16.80
2014,08,24,05,27,16.80
2014,08,24,05,28,16.90
2014,08,24,05,29,17.10
2014,08,24,05,30,17.10
2014,08,24,05,31,17.20
2014,08,24,05,32,17.20
2014,08,24,05,33,17.30
2014,08,24,05,34,17.30
2014,08,24,05,35,17.30
2014,08,24,05,36,17.30
2014,08,24,05,37,17.30
2014,08,24,05,38,17.30
2014,08,24,05,39,17.30
2014,08,24,05,40,17.30
2014,08,24,05,41,17.30
2014,08,24,05,42,17.30
2014,08,24,05,43,17.30
2014,08,24,05,44,17.30
2014,08,24,05,45,17.30
2014,08,24,05,46,17.30
2014,08,24,05,47,17.30
2014,08,24,05,48,17.30
2014,08,24,05,49,17.40
2014,08,24,05,50,17.40
2014,08,24,05,51,17.40
2014,08,24,05,52,17.40
2014,08,24,05,53,17.50
2014,08,24,05,54,17.50
2014,08,24,05,55,17.50
2014,08,24,05,56,17.60
2014,08,24,05,57,17.60
2014,08,24,05,58,17.60
2014,08,24,05,59,17.60
2014,08,24,06,00,17.60
2014,08,24,06,01,17.60
2014,08,24,06,02,17.60
2014,08,24,06,03,17.60
2014,08,24,06,04,17.60
2014,08,24,06,05,17.70
2014,08,24,06,06,17.70
2014,08,24,06,07,17.70
2014,08,24,06,08,17.70
2014,08,24,06,09,17.70
2014,08,24,06,10,17.70
2014,08,24,06,11,17.70
2014,08,24,06,12,17.70
2014,08,24,06,13,17.80
2014,08,24,06,14,17.80
2014,08,24,06,15,17.80
2014,08,24,06,16,17.80
2014,08,24,06,17,17.80
2014,08,24,06,18,17.70
2014,08,24,06,19,17.70
2014,08,24,06,20,17.70
2014,08,24,06,21,17.70
2014,08,24,06,22,17.70
2014,08,24,06,23,17.70
2014,08,24,06,24,17.70
2014,08,24,06,25,17.70
2014,08,24,06,26,17.70
2014,08,24,06,27,17.60
2014,08,24,06,28,17.70
2014,08,24,06,29,17.70
2014,08,24,06,30,17.70
2014,08,24,06,31,17.70
2014,08,24,06,32,17.70
2014,08,24,06,33,17.60
2014,08,24,06,34,17.60
2014,08,24,06,35,17.70
2014,08,24,06,36,17.70
2014,08,24,06,37,17.70
2014,08,24,06,38,17.70
2014,08,24,06,39,17.70
2014,08,24,06,40,17.70
2014,08,24,06,41,17.70
2014,08,24,06,42,17.70
2014,08,24,06,43,17.70
2014,08,24,06,44,17.70
2014,08,24,06,45,17.80
2014,08,24,06,46,17.70
2014,08,24,06,47,17.70
2014,08,24,06,48,17.70
2014,08,24,06,49,17.60
2014,08,24,06,50,17.60
2014,08,24,06,51,17.60
2014,08,24,06,52,17.60
2014,08,24,06,53,17.60
2014,08,24,06,54,17.60
2014,08,24,06,55,17.60
2014,08,24,06,56,17.50
2014,08,24,06,57,17.50
2014,08,24,06,58,17.50
2014,08,24,06,59,17.50
2014,08,24,07,00,17.50
2014,08,24,07,01,17.50
2014,08,24,07,02,17.50
2014,08,24,07,03,17.50
2014,08,24,07,04,17.50
2014,08,24,07,05,17.50
2014,08,24,07,06,17.50
2014,08,24,07,07,17.50
2014,08,24,07,08,17.50
2014,08,24,07,09,17.50
2014,08,24,07,10,17.50
2014,08,24,07,11,17.50
2014,08,24,07,12,17.40
2014,08,24,07,13,17.50
2014,08,24,07,14,17.50
2014,08,24,07,15,17.50
2014,08,24,07,16,17.50
2014,08,24,07,17,17.50
2014,08,24,07,18,17.50
2014,08,24,07,19,17.50
2014,08,24,07,20,17.50
2014,08,24,07,21,17.50
2014,08,24,07,22,17.50
2014,08,24,07,23,17.50
2014,08,24,07,24,17.60
2014,08,24,07,25,17.60
2014,08,24,07,26,17.60
2014,08,24,07,27,17.60
2014,08,24,07,28,17.50
2014,08,24,07,29,17.50
2014,08,24,07,30,17.50
2014,08,24,07,31,17.50
2014,08,24,07,32,17.60
2014,08,24,07,33,17.60
2014,08,24,07,34,17.60
2014,08,24,07,35,17.60
2014,08,24,07,36,17.60
2014,08,24,07,37,17.60
2014,08,24,07,38,17.60
2014,08,24,07,39,17.60
2014,08,24,07,40,17.60
2014,08,24,07,41,17.60
2014,08,24,07,42,17.60
2014,08,24,07,43,17.60
2014,08,24,07,44,17.50
2014,08,24,07,45,17.50
2014,08,24,07,46,17.50
2014,08,24,07,47,17.60
2014,08,24,07,48,17.60
2014,08,24,07,49,17.50
2014,08,24,07,50,17.50
2014,08,24,07,51,17.50
2014,08,24,07,52,17.50
2014,08,24,07,53,17.50
2014,08,24,07,54,17.50
2014,08,24,07,55,17.50
2014,08,24,07,56,17.40
2014,08,24,07,57,17.50
2014,08,24,07,58,17.40
2014,08,24,07,59,17.40
2014,08,24,08,00,17.40
2014,08,24,08,01,17.40
2014,08,24,08,02,17.40
2014,08,24,08,03,17.50
2014,08,24,08,04,17.50
2014,08,24,08,05,17.50
2014,08,24,08,06,17.60
2014,08,24,08,07,17.60
2014,08,24,08,08,17.60
2014,08,24,08,09,17.60
2014,08,24,08,10,17.60
2014,08,24,08,11,17.70
2014,08,24,08,12,17.70
2014,08,24,08,13,17.70
2014,08,24,08,14,17.70
2014,08,24,08,15,17.70
2014,08,24,08,16,17.70
2014,08,24,08,17,17.70
2014,08,24,08,18,17.70
2014,08,24,08,19,17.70
2014,08,24,08,20,17.70
2014,08,24,08,21,17.70
2014,08,24,08,22,17.70
2014,08,24,08,23,17.70
2014,08,24,08,24,17.70
2014,08,24,08,25,17.70
2014,08,24,08,26,17.70
2014,08,24,08,27,17.70
2014,08,24,08,28,17.80
2014,08,24,08,29,17.80
2014,08,24,08,30,17.80
2014,08,24,08,31,17.80
2014,08,24,08,32,17.80
2014,08,24,08,33,17.80
2014,08,24,08,34,17.80
2014,08,24,08,35,17.80
2014,08,24,08,36,17.80
2014,08,24,08,37,17.80
2014,08,24,08,38,17.80
2014,08,24,08,39,17.80
2014,08,24,08,40,17.80
2014,08,24,08,41,17.80
2014,08,24,08,42,17.90
2014,08,24,08,43,17.90
2014,08,24,08,44,17.90
2014,08,24,08,45,17.90
2014,08,24,08,46,17.90
2014,08,24,08,47,17.90
2014,08,24,08,48,17.90
2014,08,24,08,49,17.90
2014,08,24,08,50,17.90
2014,08,24,08,51,18.00
2014,08,24,08,52,18.00
2014,08,24,08,53,18.10
2014,08,24,08,54,18.10
2014,08,24,08,55,18.10
2014,08,24,08,56,18.10
2014,08,24,08,57,18.10
2014,08,24,08,58,18.10
2014,08,24,08,59,18.10
2014,08,24,09,00,18.10
2014,08,24,09,01,18.20
2014,08,24,09,02,18.20
2014,08,24,09,03,18.20
2014,08,24,09,04,18.30
2014,08,24,09,05,18.30
2014,08,24,09,06,18.30
2014,08,24,09,07,18.30
2014,08,24,09,08,18.30
2014,08,24,09,09,18.30
2014,08,24,09,10,18.20
2014,08,24,09,11,18.20
2014,08,24,09,12,18.20
2014,08,24,09,13,18.30
2014,08,24,09,14,18.30
2014,08,24,09,15,18.30
2014,08,24,09,16,18.30
2014,08,24,09,17,18.30
2014,08,24,09,18,18.30
2014,08,24,09,19,18.30
2014,08,24,09,20,18.30
2014,08,24,09,21,18.20
2014,08,24,09,22,18.20
2014,08,24,09,23,18.20
2014,08,24,09,24,18.30
2014,08,24,09,25,18.30
2014,08,24,09,26,18.30
2014,08,24,09,27,18.30
2014,08,24,09,28,18.30
2014,08,24,09,29,18.40
2014,08,24,09,30,18.50
2014,08,24,09,31,18.50
2014,08,24,09,32,18.60
2014,08,24,09,33,18.60
2014,08,24,09,34,18.70
2014,08,24,09,35,18.70
2014,08,24,09,36,18.70
2014,08,24,09,37,18.70
2014,08,24,09,38,18.70
2014,08,24,09,39,18.80
2014,08,24,09,40,18.80
2014,08,24,09,41,18.90
2014,08,24,09,42,18.90
2014,08,24,09,43,18.90
2014,08,24,09,44,19.00
2014,08,24,09,45,19.00
2014,08,24,09,46,19.00
2014,08,24,09,47,19.00
2014,08,24,09,48,19.10
2014,08,24,09,49,19.10
2014,08,24,09,50,19.10
2014,08,24,09,51,19.10
2014,08,24,09,52,19.20
2014,08,24,09,53,19.20
2014,08,24,09,54,19.30
2014,08,24,09,55,19.30
2014,08,24,09,56,19.40
2014,08,24,09,57,19.40
2014,08,24,09,58,19.50
2014,08,24,09,59,19.50
2014,08,24,10,00,19.60
2014,08,24,10,01,19.70
2014,08,24,10,02,19.70
2014,08,24,10,03,19.80
2014,08,24,10,04,19.80
2014,08,24,10,05,19.90
2014,08,24,10,06,19.90
2014,08,24,10,07,19.90
2014,08,24,10,08,20.00
2014,08,24,10,09,20.00
2014,08,24,10,10,20.00
2014,08,24,10,11,20.10
2014,08,24,10,12,20.20
2014,08,24,10,13,20.20
2014,08,24,10,14,20.20
2014,08,24,10,15,20.20
2014,08,24,10,16,20.20
2014,08,24,10,17,20.20
2014,08,24,10,18,20.30
2014,08,24,10,19,20.30
2014,08,24,10,20,20.30
2014,08,24,10,21,20.30
2014,08,24,10,22,20.30
2014,08,24,10,23,20.40
2014,08,24,10,24,20.40
2014,08,24,10,25,20.40
2014,08,24,10,26,20.40
2014,08,24,10,27,20.50
2014,08,24,10,28,20.50
2014,08,24,10,29,20.50
2014,08,24,10,30,20.60
2014,08,24,10,31,20.60
2014,08,24,10,32,20.70
2014,08,24,10,33,20.70
2014,08,24,10,34,20.80
2014,08,24,10,35,20.80
2014,08,24,10,36,20.80
2014,08,24,10,37,20.90
2014,08,24,10,38,20.90
2014,08,24,10,39,21.00
2014,08,24,10,40,21.00
2014,08,24,10,41,21.10
2014,08,24,10,42,21.10
2014,08,24,10,43,21.20
2014,08,24,10,44,21.20
2014,08,24,10,45,21.20
2014,08,24,10,46,21.30
2014,08,24,10,47,21.30
2014,08,24,10,48,21.30
2014,08,24,10,49,21.40
2014,08,24,10,50,21.40
2014,08,24,10,51,21.40
2014,08,24,10,52,21.50
2014,08,24,10,53,21.50
2014,08,24,10,54,21.60
2014,08,24,10,55,21.70
2014,08,24,10,56,21.70
2014,08,24,10,57,21.80
2014,08,24,10,58,21.80
2014,08,24,10,59,21.80
2014,08,24,11,00,21.80
2014,08,24,11,01,21.90
2014,08,24,11,02,21.90
2014,08,24,11,03,21.90
2014,08,24,11,04,22.00
2014,08,24,11,05,22.00
2014,08,24,11,06,22.10
2014,08,24,11,07,22.10
2014,08,24,11,08,22.20
2014,08,24,11,09,22.20
2014,08,24,11,10,22.30
2014,08,24,11,11,22.30
2014,08,24,11,12,22.40
2014,08,24,11,13,22.50
2014,08,24,11,14,22.50
2014,08,24,11,15,22.60
2014,08,24,11,16,22.60
2014,08,24,11,17,22.60
2014,08,24,11,18,22.60
2014,08,24,11,19,22.70
2014,08,24,11,20,22.70
2014,08,24,11,21,22.80
2014,08,24,11,22,22.80
2014,08,24,11,23,22.80
2014,08,24,11,24,22.90
2014,08,24,11,25,22.90
2014,08,24,11,26,23.00
2014,08,24,11,27,23.00
2014,08,24,11,28,23.10
2014,08,24,11,29,23.10
2014,08,24,11,30,23.20
2014,08,24,11,31,23.20
2014,08,24,11,32,23.20
2014,08,24,11,33,23.30
2014,08,24,11,34,23.30
2014,08,24,11,35,23.30
2014,08,24,11,36,23.40
2014,08,24,11,37,23.40
2014,08,24,11,38,23.50
2014,08,24,11,39,23.50
2014,08,24,11,40,23.60
2014,08,24,11,41,23.60
2014,08,24,11,42,23.70
2014,08,24,11,43,23.70
2014,08,24,11,44,23.80
2014,08,24,11,45,23.80
2014,08,24,11,46,23.90
2014,08,24,11,47,23.90
2014,08,24,11,48,24.00
2014,08,24,11,49,24.10
2014,08,24,11,50,24.10
2014,08,24,11,51,24.10
2014,08,24,11,52,24.10
2014,08,24,11,53,24.10
2014,08,24,11,54,24.10
2014,08,24,11,55,24.10
2014,08,24,11,56,24.20
2014,08,24,11,57,24.20
2014,08,24,11,58,24.30
2014,08,24,11,59,24.40
2014,08,24,12,00,24.50
2014,08,24,12,01,24.60
2014,08,24,12,02,24.70
2014,08,24,12,03,24.70
2014,08,24,12,04,24.80
2014,08,24,12,05,24.90
2014,08,24,12,06,25.10
2014,08,24,12,07,25.10
2014,08,24,12,08,25.10
2014,08,24,12,09,25.10
2014,08,24,12,10,25.10
2014,08,24,12,11,25.10
2014,08,24,12,12,25.10
2014,08,24,12,13,25.10
2014,08,24,12,14,25.10
2014,08,24,12,15,25.10
2014,08,24,12,16,25.10
2014,08,24,12,17,25.10
2014,08,24,12,18,25.20
2014,08,24,12,19,25.20
2014,08,24,12,20,25.20
2014,08,24,12,21,25.20
2014,08,24,12,22,25.30
2014,08,24,12,23,25.40
2014,08,24,12,24,25.50
2014,08,24,12,25,25.50
2014,08,24,12,26,25.50
2014,08,24,12,27,25.50
2014,08,24,12,28,25.60
2014,08,24,12,29,25.60
2014,08,24,12,30,25.70
2014,08,24,12,31,25.80
2014,08,24,12,32,25.80
2014,08,24,12,33,25.80
2014,08,24,12,34,25.80
2014,08,24,12,35,25.80
2014,08,24,12,36,25.90
2014,08,24,12,37,25.90
2014,08,24,12,38,25.90
2014,08,24,12,39,26.00
2014,08,24,12,40,26.00
2014,08,24,12,41,26.10
2014,08,24,12,42,26.10
2014,08,24,12,43,26.10
2014,08,24,12,44,26.20
2014,08,24,12,45,26.30
2014,08,24,12,46,26.40
2014,08,24,12,47,26.50
2014,08,24,12,48,26.60
2014,08,24,12,49,26.60
2014,08,24,12,50,26.70
2014,08,24,12,51,26.70
2014,08,24,12,52,26.70
2014,08,24,12,53,26.70
2014,08,24,12,54,26.50
2014,08,24,12,55,26.30
2014,08,24,12,56,26.00
2014,08,24,12,57,25.80
2014,08,24,12,58,25.50
2014,08,24,12,59,25.30
2014,08,24,13,00,25.00
2014,08,24,13,01,24.70
2014,08,24,13,02,24.30
2014,08,24,13,03,24.00
2014,08,24,13,04,23.80
2014,08,24,13,05,23.60
2014,08,24,13,06,23.40
2014,08,24,13,07,23.20
2014,08,24,13,08,22.90
2014,08,24,13,09,22.70
2014,08,24,13,10,22.40
2014,08,24,13,11,22.30
2014,08,24,13,12,22.10
2014,08,24,13,13,22.10
2014,08,24,13,14,22.10
2014,08,24,13,15,22.20
2014,08,24,13,16,22.10
2014,08,24,13,17,22.10
2014,08,24,13,18,22.10
2014,08,24,13,19,22.20
2014,08,24,13,20,22.20
2014,08,24,13,21,22.20
2014,08,24,13,22,22.20
2014,08,24,13,23,22.10
2014,08,24,13,24,22.00
2014,08,24,13,25,21.90
2014,08,24,13,26,21.80
2014,08,24,13,27,21.80
2014,08,24,13,28,21.70
2014,08,24,13,29,21.70
2014,08,24,13,30,21.70
2014,08,24,13,31,21.70
2014,08,24,13,32,21.70
2014,08,24,13,33,21.80
2014,08,24,13,34,21.80
2014,08,24,13,35,21.80
2014,08,24,13,36,21.80
2014,08,24,13,37,21.80
2014,08,24,13,38,21.90
2014,08,24,13,39,22.00
2014,08,24,13,40,22.10
2014,08,24,13,41,22.20
2014,08,24,13,42,22.30
2014,08,24,13,43,22.40
2014,08,24,13,44,22.50
2014,08,24,13,45,22.50
2014,08,24,13,46,22.60
2014,08,24,13,47,22.60
2014,08,24,13,48,22.60
2014,08,24,13,49,22.60
2014,08,24,13,50,22.70
2014,08,24,13,51,22.80
2014,08,24,13,52,22.80
2014,08,24,13,53,22.80
2014,08,24,13,54,22.70
2014,08,24,13,55,22.60
2014,08,24,13,56,22.40
2014,08,24,13,57,22.30
2014,08,24,13,58,22.30
2014,08,24,13,59,22.20
2014,08,24,14,00,22.20
2014,08,24,14,01,22.10
2014,08,24,14,02,22.10
2014,08,24,14,03,22.00
2014,08,24,14,04,22.00
2014,08,24,14,05,22.00
2014,08,24,14,06,22.00
2014,08,24,14,07,22.00
2014,08,24,14,08,22.00
2014,08,24,14,09,22.00
2014,08,24,14,10,22.00
2014,08,24,14,11,22.00
2014,08,24,14,12,21.90
2014,08,24,14,13,21.90
2014,08,24,14,14,21.90
2014,08,24,14,15,21.90
2014,08,24,14,16,21.90
2014,08,24,14,17,21.90
2014,08,24,14,18,21.90
2014,08,24,14,19,21.90
2014,08,24,14,20,21.90
2014,08,24,14,21,21.80
2014,08,24,14,22,21.70
2014,08,24,14,23,21.70
2014,08,24,14,24,21.70
2014,08,24,14,25,21.70
2014,08,24,14,26,21.80
2014,08,24,14,27,21.80
2014,08,24,14,28,21.80
2014,08,24,14,29,21.80
2014,08,24,14,30,21.80
2014,08,24,14,31,21.90
2014,08,24,14,32,22.00
2014,08,24,14,33,22.10
2014,08,24,14,34,22.20
2014,08,24,14,35,22.20
2014,08,24,14,36,22.20
2014,08,24,14,37,22.20
2014,08,24,14,38,22.20
2014,08,24,14,39,22.20
2014,08,24,14,40,22.20
2014,08,24,14,41,22.20
2014,08,24,14,42,22.20
2014,08,24,14,43,22.20
2014,08,24,14,44,22.20
2014,08,24,14,45,22.20
2014,08,24,14,46,22.20
2014,08,24,14,47,22.20
2014,08,24,14,48,22.10
2014,08,24,14,49,22.10
2014,08,24,14,50,22.10
2014,08,24,14,51,22.10
2014,08,24,14,52,22.10
2014,08,24,14,53,22.10
2014,08,24,14,54,22.10
2014,08,24,14,55,22.00
2014,08,24,14,56,22.10
2014,08,24,14,57,22.10
2014,08,24,14,58,22.10
2014,08,24,14,59,22.10
2014,08,24,15,00,22.10
2014,08,24,15,01,22.20
2014,08,24,15,02,22.20
2014,08,24,15,03,22.20
2014,08,24,15,04,22.20
2014,08,24,15,05,22.20
2014,08,24,15,06,22.30
2014,08,24,15,07,22.30
2014,08,24,15,08,22.40
2014,08,24,15,09,22.40
2014,08,24,15,10,22.50
2014,08,24,15,11,22.50
2014,08,24,15,12,22.50
2014,08,24,15,13,22.50
2014,08,24,15,14,22.60
2014,08,24,15,15,22.60
2014,08,24,15,16,22.50
2014,08,24,15,17,22.50
2014,08,24,15,18,22.50
2014,08,24,15,19,22.60
2014,08,24,15,20,22.60
2014,08,24,15,21,22.60
2014,08,24,15,22,22.50
2014,08,24,15,23,22.40
2014,08,24,15,24,22.30
2014,08,24,15,25,22.30
2014,08,24,15,26,22.30
2014,08,24,15,27,22.20
2014,08,24,15,28,22.20
2014,08,24,15,29,22.20
2014,08,24,15,30,22.20
2014,08,24,15,31,22.10
2014,08,24,15,32,22.10
2014,08,24,15,33,22.10
2014,08,24,15,34,22.20
2014,08,24,15,35,22.30
2014,08,24,15,36,22.20
2014,08,24,15,37,22.20
2014,08,24,15,38,22.20
2014,08,24,15,39,22.10
2014,08,24,15,40,22.10
2014,08,24,15,41,22.10
2014,08,24,15,42,22.10
2014,08,24,15,43,22.10
2014,08,24,15,44,22.00
2014,08,24,15,45,21.90
2014,08,24,15,46,21.80
2014,08,24,15,47,21.70
2014,08,24,15,48,21.60
2014,08,24,15,49,21.60
2014,08,24,15,50,21.50
2014,08,24,15,51,21.50
2014,08,24,15,52,21.40
2014,08,24,15,53,21.30
2014,08,24,15,54,21.30
2014,08,24,15,55,21.30
2014,08,24,15,56,21.30
2014,08,24,15,57,21.20
2014,08,24,15,58,21.20
2014,08,24,15,59,21.20
2014,08,24,16,00,21.30
2014,08,24,16,01,21.30
2014,08,24,16,02,21.40
2014,08,24,16,03,21.50
2014,08,24,16,04,21.60
2014,08,24,16,05,21.70
2014,08,24,16,06,21.80
2014,08,24,16,07,21.90
2014,08,24,16,08,22.00
2014,08,24,16,09,22.20
2014,08,24,16,10,22.30
2014,08,24,16,11,22.50
2014,08,24,16,12,22.60
2014,08,24,16,13,22.70
2014,08,24,16,14,22.80
2014,08,24,16,15,22.90
2014,08,24,16,16,23.00
2014,08,24,16,17,23.10
2014,08,24,16,18,23.30
2014,08,24,16,19,23.40
2014,08,24,16,20,23.50
2014,08,24,16,21,23.60
2014,08,24,16,22,23.70
2014,08,24,16,23,23.70
2014,08,24,16,24,23.80
2014,08,24,16,25,23.80
2014,08,24,16,26,23.90
2014,08,24,16,27,24.00
2014,08,24,16,28,24.10
2014,08,24,16,29,24.20
2014,08,24,16,30,24.20
2014,08,24,16,31,24.20
2014,08,24,16,32,24.30
2014,08,24,16,33,24.30
2014,08,24,16,34,24.30
2014,08,24,16,35,24.30
2014,08,24,16,36,24.40
2014,08,24,16,37,24.40
2014,08,24,16,38,24.50
2014,08,24,16,39,24.50
2014,08,24,16,40,24.60
2014,08,24,16,41,24.60
2014,08,24,16,42,24.70
2014,08,24,16,43,24.70
2014,08,24,16,44,24.80
2014,08,24,16,45,24.90
2014,08,24,16,46,24.90
2014,08,24,16,47,24.90
2014,08,24,16,48,24.90
2014,08,24,16,49,24.90
2014,08,24,16,50,24.80
2014,08,24,16,51,24.80
2014,08,24,16,52,24.70
2014,08,24,16,53,24.60
2014,08,24,16,54,24.40
2014,08,24,16,55,24.30
2014,08,24,16,56,24.10
2014,08,24,16,57,23.90
2014,08,24,16,58,23.70
2014,08,24,16,59,23.60
2014,08,24,17,00,23.50
2014,08,24,17,01,23.40
2014,08,24,17,02,23.40
2014,08,24,17,03,23.40
2014,08,24,17,04,23.40
2014,08,24,17,05,23.50
2014,08,24,17,06,23.60
2014,08,24,17,07,23.60
2014,08,24,17,08,23.60
2014,08,24,17,09,23.60
2014,08,24,17,10,23.60
2014,08,24,17,11,23.70
2014,08,24,17,12,23.70
2014,08,24,17,13,23.70
2014,08,24,17,14,23.80
2014,08,24,17,15,23.80
2014,08,24,17,16,23.80
2014,08,24,17,17,23.90
2014,08,24,17,18,24.00
2014,08,24,17,19,24.00